Weather History for Ankeny, IA

Change the Weather History Date:

Wednesday, November 21, 2012

  Actual Average (KDSM) Record (KDSM)
Temperature  
Mean Temperature 50 °F 36 °F  
Max Temperature 69 °F 45 °F 74 °F (1990)
Min Temperature 32 °F 28 °F -1 °F (1937)
Degree Days  
Heating Degree Days 14 29  
Month to date heating degree days 491  
Since 1 July heating degree days 975  
Cooling Degree Days 0 0  
Month to date cooling degree days 0  
Year to date cooling degree days 1066  
Moisture  
Dew Point 36 °F    
Average Humidity 60    
Maximum Humidity 93    
Minimum Humidity 33    
Precipitation  
Precipitation 0.00 in 0.07 in 1.06 in (1898)
Month to date precipitation 1.62  
Year to date precipitation 34.03  
Snow  
Snow 0.00 in 0.10 in 4.80 in (2007)
Month to date snowfall 1.1  
Since 1 July snowfall 1.5  
Since 1 September snowfall 1.5  
Snow Depth -    
Sea Level Pressure  
Sea Level Pressure 30.04 in    
Wind  
Wind Speed 7 mph (South)    
Max Wind Speed 18 mph    
Max Gust Speed 25 mph    
Visibility 8 miles    
Events      
T = Trace of Precipitation, MM = Missing Value Source: NWS Daily Summary

Daily Weather History Graph

Daily Weather History Graph

Search for Another Location

Airport:

Trip Planner

Search our weather history database for the weather conditions in past years. The results will help you decide how hot, cold, wet, or windy it might be!

Date:

Astronomy

Nov. 21, 2012 Rise Set
Actual Time 7:11 AM CST 4:49 PM CST
Civil Twilight 6:40 AM CST 5:19 PM CST
Nautical Twilight 6:06 AM CST 5:53 PM CST
Astronomical Twilight 5:33 AM CST 6:26 PM CST
Moon 1:10 PM CST (11/21) 12:25 AM CST (11/21)
Length of Visible Light 10h 38m
Length of Day
9h 37m
First Quarter, 62% of the Moon is Illuminated
Nov 21
First Quarter
Nov 28
Full
Dec 6
Last Quarter
Dec 13
New
Dec 19
First Quarter

Hourly Weather History & Observations

Time (CST) Temp. Windchill Dew Point Humidity Pressure Visibility Wind Dir Wind Speed Gust Speed Precip Events Conditions
12:15 AM 35.6 °F 32.8 °F 32.0 °F 87% 30.15 in 4.0 mi SSE 3.5 mph - N/A   Clear
12:35 AM 35.6 °F - 33.8 °F 93% 30.16 in 5.0 mi Calm Calm - N/A   Clear
12:55 AM 33.8 °F 30.8 °F 30.2 °F 87% 30.15 in 4.0 mi South 3.5 mph - N/A   Clear
1:15 AM 32.0 °F 27.5 °F 28.4 °F 87% 30.15 in 4.0 mi SSE 4.6 mph - N/A   Clear
1:35 AM 35.6 °F 31.7 °F 32.0 °F 87% 30.14 in 5.0 mi SE 4.6 mph - N/A   Clear
1:55 AM 35.6 °F 31.7 °F 32.0 °F 87% 30.14 in 7.0 mi SE 4.6 mph - N/A   Clear
2:15 AM 35.6 °F 31.7 °F 32.0 °F 87% 30.14 in 7.0 mi SSE 4.6 mph - N/A   Clear
2:35 AM 35.6 °F 31.7 °F 32.0 °F 87% 30.14 in 7.0 mi SSE 4.6 mph - N/A   Clear
2:55 AM 35.6 °F 32.8 °F 32.0 °F 87% 30.14 in 7.0 mi SE 3.5 mph - N/A   Clear
3:15 AM 33.8 °F - 30.2 °F 87% 30.14 in 7.0 mi Calm Calm - N/A   Clear
3:35 AM 33.8 °F 29.6 °F 30.2 °F 87% 30.14 in 7.0 mi SE 4.6 mph - N/A   Clear
3:55 AM 33.8 °F 30.8 °F 28.4 °F 81% 30.14 in 5.0 mi SE 3.5 mph - N/A   Clear
4:15 AM 33.8 °F 29.6 °F 30.2 °F 87% 30.14 in 5.0 mi SSE 4.6 mph - N/A   Clear
4:35 AM 35.6 °F 32.8 °F 32.0 °F 87% 30.14 in 7.0 mi SSE 3.5 mph - N/A   Clear
4:55 AM 33.8 °F 30.8 °F 30.2 °F 87% 30.14 in 5.0 mi SSE 3.5 mph - N/A   Clear
5:15 AM 35.6 °F 32.8 °F 30.2 °F 81% 30.13 in 5.0 mi SE 3.5 mph - N/A   Clear
5:35 AM 33.8 °F 30.8 °F 30.2 °F 87% 30.13 in 5.0 mi SSE 3.5 mph - N/A   Clear
5:55 AM 35.6 °F 32.8 °F 33.8 °F 93% 30.13 in 7.0 mi SE 3.5 mph - N/A   Clear
6:15 AM 35.6 °F - 30.2 °F 81% 30.12 in 5.0 mi Calm Calm - N/A   Clear
6:35 AM 37.4 °F - 33.8 °F 87% 30.13 in 7.0 mi Calm Calm - N/A   Clear
6:55 AM 37.4 °F - 33.8 °F 87% 30.12 in 5.0 mi Calm Calm - N/A   Clear
7:15 AM 35.6 °F - 33.8 °F 93% 30.13 in 5.0 mi Calm Calm - N/A   Clear
7:35 AM 35.6 °F - 32.0 °F 87% 30.12 in 3.0 mi Calm Calm - N/A   Clear
7:55 AM 35.6 °F - 33.8 °F 93% 30.12 in 5.0 mi Calm Calm - N/A   Clear
8:15 AM 39.2 °F 35.9 °F 35.6 °F 87% 30.12 in 7.0 mi South 4.6 mph - N/A   Clear
8:35 AM 48.2 °F - 39.2 °F 71% 30.11 in 10.0 mi SSW 11.5 mph - N/A   Clear
8:55 AM 50.0 °F - 39.2 °F 66% 30.11 in 10.0 mi SSW 12.7 mph 18.4 mph N/A   Clear
9:15 AM 51.8 °F - 39.2 °F 62% 30.11 in 10.0 mi SSW 13.8 mph 18.4 mph N/A   Clear
9:35 AM 53.6 °F - 39.2 °F 58% 30.11 in 10.0 mi SSW 11.5 mph 20.7 mph N/A   Clear
9:55 AM 55.4 °F - 39.2 °F 54% 30.11 in 10.0 mi SSW 13.8 mph - N/A   Clear
10:15 AM 57.2 °F - 39.2 °F 51% 30.11 in 10.0 mi SSW 13.8 mph - N/A   Clear
10:35 AM 60.8 °F - 39.2 °F 45% 30.10 in 10.0 mi SSW 13.8 mph - N/A   Clear
10:55 AM 62.6 °F - 39.2 °F 42% 30.10 in 10.0 mi SSW 12.7 mph 19.6 mph N/A   Clear
11:15 AM 64.4 °F - 39.2 °F 40% 30.09 in 10.0 mi SSW 10.4 mph - N/A   Clear
11:35 AM 66.2 °F - 39.2 °F 37% 30.07 in 10.0 mi SSW 10.4 mph - N/A   Clear
11:55 AM 66.2 °F - 39.2 °F 37% 30.06 in 10.0 mi SSW 17.3 mph 20.7 mph N/A   Clear
12:15 PM 68.0 °F - 39.2 °F 35% 30.05 in 10.0 mi SW 17.3 mph 25.3 mph N/A   Clear
12:35 PM 69.8 °F - 39.2 °F 33% 30.04 in 10.0 mi SSW 18.4 mph 23.0 mph N/A   Clear
12:55 PM 69.8 °F - 41.0 °F 35% 30.03 in 10.0 mi SSW 16.1 mph 23.0 mph N/A   Clear
1:15 PM 69.8 °F - 41.0 °F 35% 30.02 in 10.0 mi SSW 12.7 mph 24.2 mph N/A   Clear
1:35 PM 69.8 °F - 41.0 °F 35% 30.01 in 10.0 mi SSW 15.0 mph 19.6 mph N/A   Clear
1:55 PM 69.8 °F - 42.8 °F 38% 30.00 in 10.0 mi SSW 11.5 mph 23.0 mph N/A   Clear
2:15 PM 69.8 °F - 42.8 °F 38% 30.00 in 10.0 mi SSW 15.0 mph 21.9 mph N/A   Clear
2:35 PM 69.8 °F - 41.0 °F 35% 29.99 in 10.0 mi South 13.8 mph 20.7 mph N/A   Clear
2:55 PM 69.8 °F - 41.0 °F 35% 29.98 in 10.0 mi SSW 13.8 mph - N/A   Clear
3:15 PM 69.8 °F - 39.2 °F 33% 29.97 in 10.0 mi South 11.5 mph - N/A   Clear
3:35 PM 69.8 °F - 39.2 °F 33% 29.97 in 10.0 mi South 15.0 mph 19.6 mph N/A   Clear
3:55 PM 68.0 °F - 37.4 °F 33% 29.97 in 10.0 mi South 13.8 mph 19.6 mph N/A   Clear
4:15 PM 66.2 °F - 37.4 °F 35% 29.97 in 10.0 mi South 11.5 mph - N/A   Clear
4:35 PM 66.2 °F - 37.4 °F 35% 29.96 in 10.0 mi South 12.7 mph - N/A   Clear
4:55 PM 62.6 °F - 39.2 °F 42% 29.96 in 10.0 mi South 6.9 mph - N/A   Clear
5:15 PM 60.8 °F - 37.4 °F 42% 29.96 in 10.0 mi SSE 6.9 mph - N/A   Clear
5:35 PM 57.2 °F - 37.4 °F 48% 29.95 in 10.0 mi SSE 6.9 mph - N/A   Clear
5:55 PM 57.2 °F - 35.6 °F 44% 29.95 in 10.0 mi SSE 5.8 mph - N/A   Clear
6:15 PM 55.4 °F - 35.6 °F 47% 29.94 in 10.0 mi SSE 6.9 mph - N/A   Clear
6:35 PM 57.2 °F - 37.4 °F 48% 29.94 in 10.0 mi SSE 9.2 mph - N/A   Clear
6:55 PM 57.2 °F - 37.4 °F 48% 29.94 in 10.0 mi South 10.4 mph - N/A   Clear
7:15 PM 57.2 °F - 37.4 °F 48% 29.94 in 10.0 mi South 12.7 mph - N/A   Clear
7:35 PM 55.4 °F - 37.4 °F 51% 29.94 in 10.0 mi South 10.4 mph - N/A   Clear
7:55 PM 55.4 °F - 37.4 °F 51% 29.94 in 10.0 mi South 11.5 mph - N/A   Clear
8:15 PM 55.4 °F - 37.4 °F 51% 29.94 in 10.0 mi South 11.5 mph - N/A   Clear
8:35 PM 55.4 °F - 37.4 °F 51% 29.94 in 10.0 mi South 10.4 mph - N/A   Clear
8:55 PM 55.4 °F - 37.4 °F 51% 29.95 in 10.0 mi South 11.5 mph - N/A   Clear
9:15 PM 55.4 °F - 37.4 °F 51% 29.94 in 10.0 mi South 11.5 mph - N/A   Clear
9:35 PM 55.4 °F - 37.4 °F 51% 29.93 in 10.0 mi South 11.5 mph - N/A   Clear
10:15 PM 55.4 °F - 37.4 °F 51% 29.92 in 10.0 mi South 12.7 mph - N/A   Clear
10:35 PM 55.4 °F - 37.4 °F 51% 29.91 in 10.0 mi South 15.0 mph - N/A   Clear
10:55 PM 55.4 °F - 37.4 °F 51% 29.90 in 10.0 mi South 13.8 mph 19.6 mph N/A   Clear
11:15 PM 55.4 °F - 37.4 °F 51% 29.90 in 10.0 mi South 12.7 mph 19.6 mph N/A   Clear
11:35 PM 55.4 °F - 37.4 °F 51% 29.89 in 10.0 mi South 15.0 mph - N/A   Clear
11:55 PM 55.4 °F - 35.6 °F 47% 29.89 in 10.0 mi South 13.8 mph 18.4 mph N/A   Clear